| time (UTC) | temp C | wind direction | speed KPH | gust KPH | rain 1hr cm | rain 24hr cm | rain mn cm | humidity % | barometer mb |
| 20260510133026 | 6 | 178 | 12.9 | 0.0 | 0.00 | 0.00 | 0.00 | 61 | 1017.9 |
| 20260510132545 | 5 | 196 | 11.3 | 0.0 | 0.00 | 0.00 | 0.00 | 61 | 1018.0 |
| 20260510132102 | 5 | 194 | 11.3 | 0.0 | 0.00 | 0.00 | 0.00 | 64 | 1018.1 |
| 20260510131511 | 5 | 170 | 12.9 | 0.0 | 0.00 | 0.00 | 0.00 | 63 | 1018.2 |
| 20260510131027 | 4 | 207 | 12.9 | 0.0 | 0.00 | 0.00 | 0.00 | 65 | 1018.2 |
| 20260510130544 | 3 | 211 | 12.9 | 0.0 | 0.00 | 0.00 | 0.00 | 66 | 1018.3 |
| 20260510130101 | 3 | 196 | 12.9 | 0.0 | 0.00 | 0.00 | 0.00 | 66 | 1018.3 |
| 20260510125511 | 3 | 189 | 11.3 | 0.0 | 0.00 | 0.00 | 0.00 | 68 | 1018.3 |
| 20260510125030 | 2 | 173 | 8.0 | 0.0 | 0.00 | 0.00 | 0.00 | 69 | 1018.3 |
| 20260510124557 | 1 | 175 | 4.8 | 0.0 | 0.00 | 0.00 | 0.00 | 72 | 1018.3 |
| 20260510124104 | 1 | 162 | 3.2 | 0.0 | 0.00 | 0.00 | 0.00 | 69 | 1018.2 |
| 20260510123511 | 2 | 162 | 8.0 | 0.0 | 0.00 | 0.00 | 0.00 | 65 | 1018.2 |
| 20260510123024 | 2 | 162 | 14.5 | 0.0 | 0.00 | 0.00 | 0.00 | 68 | 1018.1 |
| 20260510122539 | 2 | 204 | 16.1 | 0.0 | 0.00 | 0.00 | 0.00 | 68 | 1018.0 |
| 20260510122054 | 2 | 202 | 14.5 | 0.0 | 0.00 | 0.00 | 0.00 | 68 | 1017.9 |
| 20260510121506 | 2 | 194 | 12.9 | 0.0 | 0.00 | 0.00 | 0.00 | 68 | 1017.9 |
| 20260510121022 | 2 | 204 | 14.5 | 0.0 | 0.00 | 0.00 | 0.00 | 67 | 1017.9 |
| 20260510120538 | 2 | 206 | 16.1 | 0.0 | 0.00 | 0.00 | 0.00 | 67 | 1018.2 |
| 20260510120052 | 2 | 208 | 16.1 | 0.0 | 0.00 | 0.00 | 0.00 | 68 | 1018.0 |
| 20260510115507 | 2 | 211 | 16.1 | 0.0 | 0.00 | 0.00 | 0.00 | 68 | 1018.0 |
| 20260510115024 | 2 | 209 | 14.5 | 0.0 | 0.00 | 0.00 | 0.00 | 69 | 1017.9 |
| 20260510114543 | 2 | 218 | 12.9 | 0.0 | 0.00 | 0.00 | 0.00 | 69 | 1017.9 |
| 20260510114101 | 2 | 185 | 14.5 | 0.0 | 0.00 | 0.00 | 0.00 | 69 | 1018.0 |
| 20260510113514 | 2 | 183 | 17.7 | 0.0 | 0.00 | 0.00 | 0.00 | 68 | 1017.8 |
| 20260510113040 | 2 | 192 | 17.7 | 0.0 | 0.00 | 0.00 | 0.00 | 68 | 1017.7 |
| 20260510112556 | 2 | 194 | 17.7 | 0.0 | 0.00 | 0.00 | 0.00 | 67 | 1017.6 |
| 20260510112007 | 2 | 190 | 12.9 | 0.0 | 0.00 | 0.00 | 0.00 | 67 | 1017.6 |
| 20260510111524 | 2 | 196 | 6.4 | 0.0 | 0.00 | 0.00 | 0.00 | 69 | 1017.7 |
| 20260510111041 | 2 | 174 | 4.8 | 0.0 | 0.00 | 0.00 | 0.00 | 68 | 1017.7 |
| 20260510110558 | 2 | 158 | 6.4 | 0.0 | 0.00 | 0.00 | 0.00 | 67 | 1017.8 |
| 20260510110022 | 2 | 158 | 11.3 | 0.0 | 0.00 | 0.00 | 0.00 | 67 | 1017.7 |
| 20260510105529 | 2 | 179 | 14.5 | 0.0 | 0.00 | 0.00 | 0.00 | 68 | 1017.8 |
| 20260510105049 | 2 | 185 | 14.5 | 0.0 | 0.00 | 0.00 | 0.00 | 68 | 1017.6 |
| 20260510104605 | 2 | 200 | 14.5 | 0.0 | 0.00 | 0.00 | 0.00 | 68 | 1017.7 |
| 20260510104018 | 2 | 205 | 11.3 | 0.0 | 0.00 | 0.00 | 0.00 | 69 | 1017.8 |
| 20260510103534 | 2 | 200 | 11.3 | 0.0 | 0.00 | 0.00 | 0.00 | 69 | 1017.8 |
| 20260510103054 | 2 | 194 | 11.3 | 0.0 | 0.00 | 0.00 | 0.00 | 71 | 1017.9 |
| 20260510102505 | 1 | 187 | 9.7 | 0.0 | 0.00 | 0.00 | 0.00 | 70 | 1017.9 |
| 20260510102020 | 2 | 190 | 8.0 | 0.0 | 0.00 | 0.00 | 0.00 | 69 | 1017.9 |
| 20260510101539 | 2 | 178 | 8.0 | 0.0 | 0.00 | 0.00 | 0.00 | 69 | 1017.8 |
| 20260510101050 | 2 | 167 | 9.7 | 0.0 | 0.00 | 0.00 | 0.00 | 68 | 1017.7 |
| 20260510100604 | 2 | 182 | 12.9 | 0.0 | 0.00 | 0.00 | 0.00 | 68 | 1017.7 |
| 20260510100021 | 2 | 200 | 12.9 | 0.0 | 0.00 | 0.00 | 0.00 | 68 | 1017.6 |
| 20260510095528 | 2 | 202 | 12.9 | 0.0 | 0.00 | 0.00 | 0.00 | 68 | 1017.4 |
| 20260510095048 | 2 | 196 | 12.9 | 0.0 | 0.00 | 0.00 | 0.00 | 67 | 1017.5 |
| 20260510094603 | 2 | 161 | 12.9 | 0.0 | 0.00 | 0.00 | 0.00 | 66 | 1017.6 |
| 20260510094012 | 3 | 189 | 12.9 | 0.0 | 0.00 | 0.00 | 0.00 | 66 | 1017.6 |
| 20260510093526 | 3 | 192 | 12.9 | 0.0 | 0.00 | 0.00 | 0.00 | 65 | 1017.3 |
| 20260510093042 | 3 | 193 | 14.5 | 0.0 | 0.00 | 0.00 | 0.00 | 65 | 1017.2 |
| 20260510092600 | 3 | 192 | 14.5 | 0.0 | 0.00 | 0.00 | 0.00 | 66 | 1017.2 |
| 20260510092013 | 3 | 195 | 11.3 | 0.0 | 0.00 | 0.00 | 0.00 | 66 | 1017.2 |
| 20260510091538 | 3 | 192 | 9.7 | 0.0 | 0.00 | 0.00 | 0.00 | 66 | 1017.2 |
| 20260510091058 | 2 | 190 | 9.7 | 0.0 | 0.00 | 0.00 | 0.00 | 67 | 1017.2 |
| 20260510090511 | 3 | 159 | 11.3 | 0.0 | 0.00 | 0.00 | 0.00 | 66 | 1017.3 |
| 20260510090033 | 3 | 162 | 11.3 | 0.0 | 0.00 | 0.00 | 0.00 | 65 | 1017.3 |
| 20260510085549 | 3 | 149 | 12.9 | 0.0 | 0.00 | 0.00 | 0.00 | 65 | 1017.2 |
| 20260510085002 | 3 | 136 | 14.5 | 0.0 | 0.00 | 0.00 | 0.00 | 63 | 1017.2 |
| 20260510084520 | 3 | 190 | 16.1 | 0.0 | 0.00 | 0.00 | 0.00 | 63 | 1017.3 |
| 20260510084038 | 4 | 200 | 16.1 | 0.0 | 0.00 | 0.00 | 0.00 | 62 | 1017.1 |
| 20260510083558 | 4 | 202 | 17.7 | 0.0 | 0.00 | 0.00 | 0.00 | 62 | 1017.1 |
| 20260510083013 | 4 | 186 | 17.7 | 0.0 | 0.00 | 0.00 | 0.00 | 62 | 1017.1 |
| 20260510082532 | 4 | 193 | 16.1 | 0.0 | 0.00 | 0.00 | 0.00 | 64 | 1017.1 |
| 20260510082055 | 3 | 192 | 14.5 | 0.0 | 0.00 | 0.00 | 0.00 | 65 | 1017.0 |
| 20260510081517 | 3 | 207 | 14.5 | 0.0 | 0.00 | 0.00 | 0.00 | 65 | 1017.0 |
| 20260510081036 | 3 | 199 | 14.5 | 0.0 | 0.00 | 0.00 | 0.00 | 66 | 1017.0 |
| 20260510080559 | 3 | 209 | 14.5 | 0.0 | 0.00 | 0.00 | 0.00 | 66 | 1017.0 |
| 20260510080013 | 3 | 194 | 12.9 | 0.0 | 0.00 | 0.00 | 0.00 | 67 | 1016.9 |
| 20260510075534 | 3 | 178 | 12.9 | 0.0 | 0.00 | 0.00 | 0.00 | 67 | 1016.9 |
| 20260510075053 | 3 | 205 | 11.3 | 0.0 | 0.00 | 0.00 | 0.00 | 66 | 1016.8 |
| 20260510074512 | 3 | 188 | 9.7 | 0.0 | 0.00 | 0.00 | 0.00 | 66 | 1016.8 |
| 20260510074031 | 3 | 188 | 11.3 | 0.0 | 0.00 | 0.00 | 0.00 | 66 | 1016.8 |
| 20260510073550 | 3 | 198 | 11.3 | 0.0 | 0.00 | 0.00 | 0.00 | 64 | 1016.8 |
| 20260510073012 | 4 | 197 | 11.3 | 0.0 | 0.00 | 0.00 | 0.00 | 62 | 1016.7 |
| 20260510072530 | 5 | 188 | 12.9 | 0.0 | 0.00 | 0.00 | 0.00 | 61 | 1016.8 |
| 20260510072056 | 5 | 186 | 12.9 | 0.0 | 0.00 | 0.00 | 0.00 | 61 | 1016.8 |
| 20260510071518 | 4 | 194 | 12.9 | 0.0 | 0.00 | 0.00 | 0.00 | 62 | 1016.6 |
| 20260510071033 | 4 | 190 | 11.3 | 0.0 | 0.00 | 0.00 | 0.00 | 63 | 1016.6 |
| 20260510070551 | 4 | 200 | 9.7 | 0.0 | 0.00 | 0.00 | 0.00 | 64 | 1016.7 |
| 20260510070010 | 3 | 182 | 9.7 | 0.0 | 0.00 | 0.00 | 0.00 | 66 | 1016.6 |
| 20260510065530 | 3 | 177 | 11.3 | 0.0 | 0.00 | 0.00 | 0.00 | 64 | 1016.6 |
| 20260510065054 | 3 | 179 | 12.9 | 0.0 | 0.00 | 0.00 | 0.00 | 64 | 1016.6 |
| 20260510064522 | 3 | 200 | 11.3 | 0.0 | 0.00 | 0.00 | 0.00 | 66 | 1016.4 |
| 20260510064028 | 3 | 193 | 9.7 | 0.0 | 0.00 | 0.00 | 0.00 | 68 | 1016.3 |
| 20260510063552 | 3 | 184 | 6.4 | 0.0 | 0.00 | 0.00 | 0.00 | 67 | 1016.2 |
| 20260510063014 | 3 | 181 | 8.0 | 0.0 | 0.00 | 0.00 | 0.00 | 66 | 1016.3 |
| 20260510062538 | 3 | 184 | 9.7 | 0.0 | 0.00 | 0.00 | 0.00 | 66 | 1016.2 |
| 20260510062103 | 3 | 189 | 9.7 | 0.0 | 0.00 | 0.00 | 0.00 | 66 | 1016.2 |
| 20260510061524 | 3 | 193 | 9.7 | 0.0 | 0.00 | 0.00 | 0.00 | 65 | 1016.2 |
| 20260510061047 | 3 | 188 | 9.7 | 0.0 | 0.00 | 0.00 | 0.00 | 64 | 1016.2 |
| 20260510060506 | 4 | 184 | 9.7 | 0.0 | 0.00 | 0.00 | 0.00 | 63 | 1016.2 |
| 20260510060032 | 4 | 194 | 9.7 | 0.0 | 0.00 | 0.00 | 0.00 | 62 | 1016.2 |
| 20260510055554 | 4 | 184 | 9.7 | 0.0 | 0.00 | 0.00 | 0.00 | 64 | 1016.2 |
| 20260510055010 | 3 | 189 | 9.7 | 0.0 | 0.00 | 0.00 | 0.00 | 65 | 1016.0 |
| 20260510054536 | 3 | 183 | 9.7 | 0.0 | 0.00 | 0.00 | 0.00 | 65 | 1015.8 |
| 20260510054100 | 3 | 182 | 9.7 | 0.0 | 0.00 | 0.00 | 0.00 | 65 | 1015.8 |
| 20260510053521 | 3 | 184 | 9.7 | 0.0 | 0.00 | 0.00 | 0.00 | 67 | 1015.7 |
| 20260510053044 | 3 | 171 | 8.0 | 0.0 | 0.00 | 0.00 | 0.00 | 67 | 1015.8 |
| 20260510052501 | 3 | 186 | 8.0 | 0.0 | 0.00 | 0.00 | 0.00 | 67 | 1015.7 |
| 20260510052024 | 3 | 178 | 9.7 | 0.0 | 0.00 | 0.00 | 0.00 | 66 | 1015.8 |
| 20260510051553 | 3 | 169 | 8.0 | 0.0 | 0.00 | 0.00 | 0.00 | 67 | 1015.8 |
| 20260510051009 | 2 | 169 | 8.0 | 0.0 | 0.00 | 0.00 | 0.00 | 67 | 1015.9 |
| 20260510050532 | 2 | 169 | 9.7 | 0.0 | 0.00 | 0.00 | 0.00 | 67 | 1015.9 |
| 20260510050055 | 3 | 155 | 8.0 | 0.0 | 0.00 | 0.00 | 0.00 | 66 | 1015.9 |
| 20260510045519 | 2 | 179 | 9.7 | 0.0 | 0.00 | 0.00 | 0.00 | 67 | 1015.9 |
| 20260510045041 | 2 | 175 | 11.3 | 0.0 | 0.00 | 0.00 | 0.00 | 67 | 1015.9 |
| 20260510044500 | 3 | 167 | 9.7 | 0.0 | 0.00 | 0.00 | 0.00 | 66 | 1015.8 |
| 20260510044024 | 3 | 170 | 9.7 | 0.0 | 0.00 | 0.00 | 0.00 | 65 | 1015.8 |
| 20260510043548 | 3 | 190 | 8.0 | 0.0 | 0.00 | 0.00 | 0.00 | 65 | 1015.7 |
| 20260510043008 | 3 | 207 | 9.7 | 0.0 | 0.00 | 0.00 | 0.00 | 66 | 1015.8 |
| 20260510042534 | 3 | 205 | 9.7 | 0.0 | 0.00 | 0.00 | 0.00 | 66 | 1015.7 |
| 20260510042102 | 3 | 201 | 9.7 | 0.0 | 0.00 | 0.00 | 0.00 | 65 | 1015.6 |
| 20260510041518 | 4 | 200 | 8.0 | 0.0 | 0.00 | 0.00 | 0.00 | 60 | 1015.5 |
| 20260510041044 | 5 | 196 | 8.0 | 0.0 | 0.00 | 0.00 | 0.00 | 55 | 1015.4 |
| 20260510040506 | 6 | 201 | 8.0 | 0.0 | 0.00 | 0.00 | 0.00 | 52 | 1015.2 |
| 20260510040033 | 7 | 202 | 8.0 | 0.0 | 0.00 | 0.00 | 0.00 | 50 | 1015.2 |
| 20260510035558 | 7 | 225 | 8.0 | 0.0 | 0.00 | 0.00 | 0.00 | 50 | 1015.1 |
| 20260510035019 | 7 | 321 | 8.0 | 0.0 | 0.00 | 0.00 | 0.00 | 52 | 1015.0 |
| 20260510034546 | 6 | 321 | 6.4 | 0.0 | 0.00 | 0.00 | 0.00 | 53 | 1014.9 |
| 20260510034000 | 6 | 321 | 6.4 | 0.0 | 0.00 | 0.00 | 0.00 | 52 | 1014.7 |
| 20260510033526 | 6 | 321 | 6.4 | 0.0 | 0.00 | 0.00 | 0.00 | 52 | 1014.6 |
| 20260510033117 | 7 | 321 | 8.0 | 0.0 | 0.00 | 0.00 | 0.00 | 51 | 1014.6 |
| 20260510032517 | 7 | 321 | 6.4 | 0.0 | 0.00 | 0.00 | 0.00 | 50 | 1014.4 |
| 20260510032042 | 8 | 321 | 3.2 | 0.0 | 0.00 | 0.00 | 0.00 | 48 | 1014.3 |
| 20260510031502 | 9 | 321 | 1.6 | 0.0 | 0.00 | 0.00 | 0.00 | 44 | 1014.1 |
| 20260510031026 | 10 | 321 | 3.2 | 0.0 | 0.00 | 0.00 | 0.00 | 43 | 1014.0 |
| 20260510030548 | 10 | 321 | 3.2 | 0.0 | 0.00 | 0.00 | 0.00 | 42 | 1014.0 |
| 20260510030022 | 11 | 321 | 4.8 | 0.0 | 0.00 | 0.00 | 0.00 | 40 | 1013.9 |
| 20260510025537 | 11 | 321 | 4.8 | 0.0 | 0.00 | 0.00 | 0.00 | 39 | 1013.8 |
| 20260510025004 | 12 | 321 | 3.2 | 0.0 | 0.00 | 0.00 | 0.00 | 38 | 1013.7 |
| 20260510024528 | 12 | 321 | 3.2 | 0.0 | 0.00 | 0.00 | 0.00 | 37 | 1013.6 |
| 20260510024059 | 12 | 321 | 3.2 | 0.0 | 0.00 | 0.00 | 0.00 | 37 | 1013.5 |
| 20260510023524 | 12 | 321 | 3.2 | 0.0 | 0.00 | 0.00 | 0.00 | 35 | 1013.5 |
| 20260510023049 | 13 | 321 | 3.2 | 0.0 | 0.00 | 0.00 | 0.00 | 35 | 1013.5 |
| 20260510022520 | 13 | 321 | 4.8 | 0.0 | 0.00 | 0.00 | 0.00 | 35 | 1013.5 |
| 20260510022044 | 13 | 321 | 6.4 | 0.0 | 0.00 | 0.00 | 0.00 | 34 | 1013.4 |
| 20260510021517 | 14 | 321 | 6.4 | 0.0 | 0.00 | 0.00 | 0.00 | 35 | 1013.4 |
| 20260510021036 | 14 | 321 | 8.0 | 0.0 | 0.00 | 0.00 | 0.00 | 33 | 1013.4 |
| 20260510020504 | 15 | 326 | 9.7 | 0.0 | 0.00 | 0.00 | 0.00 | 32 | 1013.2 |
| 20260510020032 | 15 | 329 | 9.7 | 0.0 | 0.00 | 0.00 | 0.00 | 30 | 1013.2 |
| 20260510015600 | 15 | 329 | 9.7 | 0.0 | 0.00 | 0.00 | 0.00 | 29 | 1013.2 |
| 20260510015027 | 15 | 319 | 9.7 | 0.0 | 0.00 | 0.00 | 0.00 | 30 | 1013.1 |
| 20260510014557 | 15 | 313 | 9.7 | 0.0 | 0.00 | 0.00 | 0.00 | 30 | 1013.2 |
| 20260510014021 | 15 | 318 | 9.7 | 0.0 | 0.00 | 0.00 | 0.00 | 30 | 1013.2 |
| 20260510013549 | 15 | 329 | 9.7 | 0.0 | 0.00 | 0.00 | 0.00 | 29 | 1013.2 |
| 20260510013014 | 15 | 340 | 9.7 | 0.0 | 0.00 | 0.00 | 0.00 | 30 | 1013.1 |
| 20260510012549 | 15 | 316 | 11.3 | 0.0 | 0.00 | 0.00 | 0.00 | 29 | 1013.1 |
| 20260510012015 | 15 | 330 | 11.3 | 0.0 | 0.00 | 0.00 | 0.00 | 29 | 1013.0 |
| 20260510011548 | 15 | 329 | 8.0 | 0.0 | 0.00 | 0.00 | 0.00 | 29 | 1013.0 |
| 20260510011013 | 15 | 29 | 4.8 | 0.0 | 0.00 | 0.00 | 0.00 | 30 | 1013.0 |
| 20260510010547 | 15 | 27 | 6.4 | 0.0 | 0.00 | 0.00 | 0.00 | 29 | 1013.0 |
| 20260510010016 | 15 | 34 | 8.0 | 0.0 | 0.00 | 0.00 | 0.00 | 29 | 1013.0 |
| 20260510005546 | 15 | 28 | 9.7 | 0.0 | 0.00 | 0.00 | 0.00 | 30 | 1013.1 |
| 20260510005018 | 15 | 346 | 11.3 | 0.0 | 0.00 | 0.00 | 0.00 | 30 | 1013.0 |
| 20260510004545 | 15 | 339 | 12.9 | 0.0 | 0.00 | 0.00 | 0.00 | 29 | 1013.0 |
| 20260510004026 | 15 | 324 | 11.3 | 0.0 | 0.00 | 0.00 | 0.00 | 29 | 1012.9 |
| 20260510003553 | 15 | 355 | 12.9 | 0.0 | 0.00 | 0.00 | 0.00 | 29 | 1012.9 |
| 20260510003020 | 15 | 360 | 14.5 | 0.0 | 0.00 | 0.00 | 0.00 | 28 | 1012.9 |
| 20260510002552 | 15 | 350 | 14.5 | 0.0 | 0.00 | 0.00 | 0.00 | 28 | 1012.9 |
| 20260510002021 | 15 | 360 | 14.5 | 0.0 | 0.00 | 0.00 | 0.00 | 28 | 1012.9 |
| 20260510001556 | 15 | 19 | 16.1 | 0.0 | 0.00 | 0.00 | 0.00 | 27 | 1012.9 |
| 20260510001022 | 15 | 351 | 17.7 | 0.0 | 0.00 | 0.00 | 0.00 | 28 | 1012.7 |
| 20260510000558 | 15 | 344 | 16.1 | 0.0 | 0.00 | 0.00 | 0.00 | 27 | 1012.7 |
| 20260510000035 | 16 | 355 | 14.5 | 0.0 | 0.00 | 0.00 | 0.00 | 27 | 1012.6 |
| 20260509235604 | 16 | 323 | 16.1 | 0.0 | 0.00 | 0.00 | 0.00 | 25 | 1012.5 |
| 20260509235030 | 16 | 355 | 14.5 | 0.0 | 0.00 | 0.00 | 0.00 | 27 | 1012.6 |
| 20260509234519 | 16 | 300 | 12.9 | 0.0 | 0.00 | 0.00 | 0.00 | 26 | 1012.6 |
| 20260509234038 | 16 | 355 | 11.3 | 0.0 | 0.00 | 0.00 | 0.00 | 26 | 1012.6 |
| 20260509233505 | 16 | 24 | 12.9 | 0.0 | 0.00 | 0.00 | 0.00 | 28 | 1012.5 |
| 20260509233042 | 16 | 5 | 12.9 | 0.0 | 0.00 | 0.00 | 0.00 | 27 | 1012.6 |
| 20260509232512 | 16 | 331 | 9.7 | 0.0 | 0.00 | 0.00 | 0.00 | 27 | 1012.5 |
| 20260509232045 | 16 | 355 | 12.9 | 0.0 | 0.00 | 0.00 | 0.00 | 27 | 1012.6 |
| 20260509231517 | 16 | 355 | 16.1 | 0.0 | 0.00 | 0.00 | 0.00 | 26 | 1012.6 |
| 20260509231052 | 16 | 331 | 14.5 | 0.0 | 0.00 | 0.00 | 0.00 | 27 | 1012.6 |
| 20260509230526 | 16 | 330 | 16.1 | 0.0 | 0.00 | 0.00 | 0.00 | 28 | 1012.5 |
| 20260509230105 | 16 | 11 | 17.7 | 0.0 | 0.00 | 0.00 | 0.00 | 27 | 1012.6 |
| 20260509225535 | 16 | 360 | 16.1 | 0.0 | 0.00 | 0.00 | 0.00 | 28 | 1012.4 |
| 20260509225008 | 15 | 355 | 16.1 | 0.0 | 0.00 | 0.00 | 0.00 | 27 | 1012.4 |
| 20260509224555 | 15 | 348 | 12.9 | 0.0 | 0.00 | 0.00 | 0.00 | 27 | 1012.4 |
| 20260509224019 | 16 | 17 | 12.9 | 0.0 | 0.00 | 0.00 | 0.00 | 27 | 1012.4 |
| 20260509223553 | 16 | 345 | 16.1 | 0.0 | 0.00 | 0.00 | 0.00 | 26 | 1012.4 |
| 20260509223025 | 16 | 19 | 17.7 | 0.0 | 0.00 | 0.00 | 0.00 | 26 | 1012.4 |
| 20260509222601 | 15 | 15 | 16.1 | 0.0 | 0.00 | 0.00 | 0.00 | 27 | 1012.4 |
| 20260509222036 | 16 | 349 | 12.9 | 0.0 | 0.00 | 0.00 | 0.00 | 26 | 1012.4 |
| 20260509221510 | 16 | 311 | 12.9 | 0.0 | 0.00 | 0.00 | 0.00 | 27 | 1012.3 |
| 20260509221045 | 15 | 5 | 16.1 | 0.0 | 0.00 | 0.00 | 0.00 | 26 | 1012.5 |
| 20260509220517 | 16 | 5 | 17.7 | 0.0 | 0.00 | 0.00 | 0.00 | 26 | 1012.4 |
| 20260509220052 | 16 | 335 | 14.5 | 0.0 | 0.00 | 0.00 | 0.00 | 28 | 1012.3 |
| 20260509215526 | 15 | 348 | 12.9 | 0.0 | 0.00 | 0.00 | 0.00 | 27 | 1012.3 |
| 20260509215002 | 15 | 18 | 11.3 | 0.0 | 0.00 | 0.00 | 0.00 | 27 | 1012.5 |
| 20260509214543 | 15 | 44 | 12.9 | 0.0 | 0.00 | 0.00 | 0.00 | 27 | 1012.4 |
| 20260509214022 | 15 | 271 | 14.5 | 0.0 | 0.00 | 0.00 | 0.00 | 27 | 1012.5 |
| 20260509213603 | 16 | 322 | 16.1 | 0.0 | 0.00 | 0.00 | 0.00 | 27 | 1012.4 |
| 20260509213034 | 15 | 14 | 16.1 | 0.0 | 0.00 | 0.00 | 0.00 | 29 | 1012.5 |
| 20260509212509 | 15 | 360 | 19.3 | 0.0 | 0.00 | 0.00 | 0.00 | 28 | 1012.4 |
| 20260509212046 | 15 | 5 | 17.7 | 0.0 | 0.00 | 0.00 | 0.00 | 28 | 1012.3 |
| 20260509211520 | 15 | 360 | 16.1 | 0.0 | 0.00 | 0.00 | 0.00 | 28 | 1012.4 |
| 20260509211103 | 15 | 342 | 17.7 | 0.0 | 0.00 | 0.00 | 0.00 | 27 | 1012.4 |
| 20260509210537 | 15 | 355 | 12.9 | 0.0 | 0.00 | 0.00 | 0.00 | 29 | 1012.3 |
| 20260509210014 | 15 | 31 | 11.3 | 0.0 | 0.00 | 0.00 | 0.00 | 27 | 1012.3 |
| 20260509205552 | 15 | 317 | 11.3 | 0.0 | 0.00 | 0.00 | 0.00 | 26 | 1012.4 |
| 20260509205028 | 15 | 9 | 8.0 | 0.0 | 0.00 | 0.00 | 0.00 | 28 | 1012.4 |
| 20260509204503 | 15 | 55 | 9.7 | 0.0 | 0.00 | 0.00 | 0.00 | 28 | 1012.4 |
| 20260509204042 | 15 | 40 | 12.9 | 0.0 | 0.00 | 0.00 | 0.00 | 28 | 1012.5 |
| 20260509203514 | 15 | 266 | 12.9 | 0.0 | 0.00 | 0.00 | 0.00 | 27 | 1012.3 |
| 20260509203101 | 15 | 338 | 12.9 | 0.0 | 0.00 | 0.00 | 0.00 | 27 | 1012.3 |
| 20260509202527 | 15 | 333 | 14.5 | 0.0 | 0.00 | 0.00 | 0.00 | 27 | 1012.5 |
| 20260509202107 | 15 | 16 | 9.7 | 0.0 | 0.00 | 0.00 | 0.00 | 29 | 1012.4 |
| 20260509201539 | 14 | 311 | 11.3 | 0.0 | 0.00 | 0.00 | 0.00 | 28 | 1012.3 |
| 20260509201017 | 14 | 13 | 14.5 | 0.0 | 0.00 | 0.00 | 0.00 | 27 | 1012.5 |
| 20260509200553 | 14 | 355 | 12.9 | 0.0 | 0.00 | 0.00 | 0.00 | 28 | 1012.5 |
| 20260509200026 | 14 | 34 | 12.9 | 0.0 | 0.00 | 0.00 | 0.00 | 29 | 1012.5 |
| 20260509195609 | 14 | 338 | 14.5 | 0.0 | 0.00 | 0.00 | 0.00 | 28 | 1012.3 |
| 20260509195039 | 14 | 319 | 11.3 | 0.0 | 0.00 | 0.00 | 0.00 | 29 | 1012.3 |
| 20260509194509 | 14 | 58 | 9.7 | 0.0 | 0.00 | 0.00 | 0.00 | 29 | 1012.4 |
| 20260509194053 | 13 | 47 | 8.0 | 0.0 | 0.00 | 0.00 | 0.00 | 30 | 1012.4 |
| 20260509193525 | 14 | 14 | 12.9 | 0.0 | 0.00 | 0.00 | 0.00 | 28 | 1012.6 |
| 20260509193003 | 13 | 30 | 14.5 | 0.0 | 0.00 | 0.00 | 0.00 | 29 | 1012.6 |
| 20260509192539 | 13 | 11 | 11.3 | 0.0 | 0.00 | 0.00 | 0.00 | 30 | 1012.6 |
| 20260509192017 | 13 | 20 | 12.9 | 0.0 | 0.00 | 0.00 | 0.00 | 30 | 1012.7 |
| 20260509191556 | 13 | 36 | 11.3 | 0.0 | 0.00 | 0.00 | 0.00 | 30 | 1012.7 |
| 20260509191034 | 13 | 55 | 8.0 | 0.0 | 0.00 | 0.00 | 0.00 | 32 | 1012.6 |
| 20260509190510 | 13 | 34 | 9.7 | 0.0 | 0.00 | 0.00 | 0.00 | 31 | 1012.6 |
| 20260509190050 | 13 | 5 | 12.9 | 0.0 | 0.00 | 0.00 | 0.00 | 32 | 1012.6 |
| 20260509185533 | 13 | 24 | 14.5 | 0.0 | 0.00 | 0.00 | 0.00 | 31 | 1012.6 |
| 20260509185011 | 13 | 360 | 12.9 | 0.0 | 0.00 | 0.00 | 0.00 | 31 | 1012.7 |
| 20260509184552 | 13 | 5 | 14.5 | 0.0 | 0.00 | 0.00 | 0.00 | 30 | 1012.6 |
| 20260509184027 | 13 | 26 | 14.5 | 0.0 | 0.00 | 0.00 | 0.00 | 30 | 1012.7 |
| 20260509183506 | 13 | 15 | 14.5 | 0.0 | 0.00 | 0.00 | 0.00 | 31 | 1012.6 |
| 20260509183049 | 13 | 9 | 16.1 | 0.0 | 0.00 | 0.00 | 0.00 | 31 | 1012.5 |
| 20260509182524 | 13 | 22 | 14.5 | 0.0 | 0.00 | 0.00 | 0.00 | 30 | 1012.6 |
| 20260509182003 | 13 | 48 | 12.9 | 0.0 | 0.00 | 0.00 | 0.00 | 31 | 1012.6 |
| 20260509181604 | 12 | 26 | 14.5 | 0.0 | 0.00 | 0.00 | 0.00 | 34 | 1012.6 |
| 20260509181023 | 12 | 45 | 16.1 | 0.0 | 0.00 | 0.00 | 0.00 | 31 | 1012.6 |
| 20260509180605 | 12 | 16 | 16.1 | 0.0 | 0.00 | 0.00 | 0.00 | 32 | 1012.4 |
| 20260509180111 | 12 | 13 | 16.1 | 0.0 | 0.00 | 0.00 | 0.00 | 30 | 1012.4 |
| 20260509175524 | 12 | 36 | 16.1 | 0.0 | 0.00 | 0.00 | 0.00 | 31 | 1012.4 |
| 20260509175001 | 12 | 360 | 16.1 | 0.0 | 0.00 | 0.00 | 0.00 | 31 | 1012.5 |
| 20260509174543 | 12 | 38 | 14.5 | 0.0 | 0.00 | 0.00 | 0.00 | 29 | 1012.5 |
| 20260509174021 | 12 | 51 | 14.5 | 0.0 | 0.00 | 0.00 | 0.00 | 31 | 1012.4 |
| 20260509173605 | 12 | 10 | 17.7 | 0.0 | 0.00 | 0.00 | 0.00 | 30 | 1012.4 |
| 20260509173047 | 12 | 339 | 19.3 | 0.0 | 0.00 | 0.00 | 0.00 | 30 | 1012.3 |
| 20260509172522 | 12 | 11 | 19.3 | 0.0 | 0.00 | 0.00 | 0.00 | 31 | 1012.4 |
| 20260509172106 | 12 | 355 | 16.1 | 0.0 | 0.00 | 0.00 | 0.00 | 32 | 1012.4 |
| 20260509171550 | 12 | 360 | 17.7 | 0.0 | 0.00 | 0.00 | 0.00 | 32 | 1012.5 |
| 20260509171027 | 12 | 360 | 16.1 | 0.0 | 0.00 | 0.00 | 0.00 | 31 | 1012.5 |
| 20260509170507 | 11 | 330 | 16.1 | 0.0 | 0.00 | 0.00 | 0.00 | 33 | 1012.5 |
| 20260509170052 | 11 | 350 | 20.9 | 0.0 | 0.00 | 0.00 | 0.00 | 33 | 1012.4 |
| 20260509165525 | 12 | 334 | 20.9 | 0.0 | 0.00 | 0.00 | 0.00 | 32 | 1012.4 |
| 20260509165005 | 11 | 337 | 22.5 | 0.0 | 0.00 | 0.00 | 0.00 | 33 | 1012.4 |
| 20260509164552 | 11 | 316 | 19.3 | 0.0 | 0.00 | 0.00 | 0.00 | 33 | 1012.4 |
| 20260509164036 | 11 | 11 | 17.7 | 0.0 | 0.00 | 0.00 | 0.00 | 34 | 1012.4 |
| 20260509163518 | 11 | 355 | 17.7 | 0.0 | 0.00 | 0.00 | 0.00 | 33 | 1012.5 |
| 20260509163104 | 12 | 350 | 17.7 | 0.0 | 0.00 | 0.00 | 0.00 | 34 | 1012.4 |
| 20260509162548 | 11 | 345 | 20.9 | 0.0 | 0.00 | 0.00 | 0.00 | 34 | 1012.4 |
| 20260509162032 | 11 | 11 | 20.9 | 0.0 | 0.00 | 0.00 | 0.00 | 33 | 1012.4 |
| 20260509161513 | 11 | 11 | 20.9 | 0.0 | 0.00 | 0.00 | 0.00 | 35 | 1012.6 |
| 20260509161058 | 11 | 26 | 17.7 | 0.0 | 0.00 | 0.00 | 0.00 | 35 | 1012.5 |
| 20260509160544 | 11 | 5 | 14.5 | 0.0 | 0.00 | 0.00 | 0.00 | 35 | 1012.4 |
| 20260509160036 | 11 | 20 | 16.1 | 0.0 | 0.00 | 0.00 | 0.00 | 35 | 1012.4 |
| 20260509155517 | 11 | 355 | 17.7 | 0.0 | 0.00 | 0.00 | 0.00 | 35 | 1012.4 |
| 20260509155104 | 10 | 5 | 19.3 | 0.0 | 0.00 | 0.00 | 0.00 | 34 | 1012.4 |
| 20260509154551 | 10 | 329 | 20.9 | 0.0 | 0.00 | 0.00 | 0.00 | 34 | 1012.3 |
| 20260509154032 | 11 | 355 | 19.3 | 0.0 | 0.00 | 0.00 | 0.00 | 36 | 1012.2 |
| 20260509153518 | 10 | 342 | 19.3 | 0.0 | 0.00 | 0.00 | 0.00 | 35 | 1012.3 |
| 20260509153111 | 10 | 348 | 17.7 | 0.0 | 0.00 | 0.00 | 0.00 | 37 | 1012.3 |
| 20260509152548 | 10 | 5 | 17.7 | 0.0 | 0.00 | 0.00 | 0.00 | 36 | 1012.4 |
| 20260509152034 | 10 | 360 | 12.9 | 0.0 | 0.00 | 0.00 | 0.00 | 37 | 1012.5 |
| 20260509151524 | 10 | 21 | 11.3 | 0.0 | 0.00 | 0.00 | 0.00 | 38 | 1012.6 |
| 20260509151011 | 10 | 11 | 12.9 | 0.0 | 0.00 | 0.00 | 0.00 | 38 | 1012.5 |
| 20260509150602 | 10 | 342 | 14.5 | 0.0 | 0.00 | 0.00 | 0.00 | 37 | 1012.4 |
| 20260509150043 | 10 | 35 | 14.5 | 0.0 | 0.00 | 0.00 | 0.00 | 39 | 1012.5 |
| 20260509145526 | 10 | 15 | 14.5 | 0.0 | 0.00 | 0.00 | 0.00 | 40 | 1012.5 |
| 20260509145010 | 9 | 343 | 16.1 | 0.0 | 0.00 | 0.00 | 0.00 | 40 | 1012.5 |
| 20260509144602 | 9 | 360 | 17.7 | 0.0 | 0.00 | 0.00 | 0.00 | 39 | 1012.4 |
| 20260509144048 | 9 | 5 | 14.5 | 0.0 | 0.00 | 0.00 | 0.00 | 39 | 1012.5 |
| 20260509143534 | 9 | 5 | 9.7 | 0.0 | 0.00 | 0.00 | 0.00 | 41 | 1012.4 |
| 20260509143024 | 8 | 36 | 9.7 | 0.0 | 0.00 | 0.00 | 0.00 | 43 | 1012.6 |
| 20260509142512 | 8 | 15 | 9.7 | 0.0 | 0.00 | 0.00 | 0.00 | 44 | 1012.6 |
| 20260509142103 | 8 | 30 | 9.7 | 0.0 | 0.00 | 0.00 | 0.00 | 44 | 1012.6 |
| 20260509141551 | 8 | 28 | 11.3 | 0.0 | 0.00 | 0.00 | 0.00 | 45 | 1012.6 |
| 20260509141041 | 7 | 23 | 11.3 | 0.0 | 0.00 | 0.00 | 0.00 | 48 | 1012.7 |
| 20260509140525 | 7 | 26 | 9.7 | 0.0 | 0.00 | 0.00 | 0.00 | 47 | 1012.6 |
| 20260509140017 | 7 | 33 | 6.4 | 0.0 | 0.00 | 0.00 | 0.00 | 48 | 1012.6 |
| 20260509135510 | 7 | 347 | 6.4 | 0.0 | 0.00 | 0.00 | 0.00 | 46 | 1012.6 |
| 20260509135055 | 7 | 355 | 6.4 | 0.0 | 0.00 | 0.00 | 0.00 | 46 | 1012.6 |
| 20260509134545 | 7 | 360 | 6.4 | 0.0 | 0.00 | 0.00 | 0.00 | 46 | 1012.6 |
| 20260509134031 | 6 | 40 | 4.8 | 0.0 | 0.00 | 0.00 | 0.00 | 47 | 1012.6 |
| 20260509133517 | 6 | 38 | 6.4 | 0.0 | 0.00 | 0.00 | 0.00 | 47 | 1012.5 |